WJA922 KBUF-CYUL

Flight info

Callsign WJA922
Flight time 0h 53m
Altitude 29000
Route MIGLO HABBS7
Aircraft B738/M-SDE2E3FGHIRWXY/LB1

Departure

Time 2026-05-07 00:32
Airport Buffalo Niagara International Airport (KBUF)

Arrival

Time 2026-05-07 01:25
Airport Montreal / Pierre Elliott Trudeau International Airport (CYUL)
Time Latitude Longitude Altitude Speed Heading
2026-05-07 00:15 42.93693 -78.73000 672 ft 0 kts 143°
2026-05-07 00:23 42.93706 -78.73013 716 ft 2 kts 143°
2026-05-07 00:23 42.93718 -78.73028 712 ft 2 kts 108°
2026-05-07 00:24 42.93719 -78.73050 714 ft 2 kts 73°
2026-05-07 00:24 42.93712 -78.73069 713 ft 2 kts 49°
2026-05-07 00:24 42.93710 -78.73072 715 ft 0 kts 46°
2026-05-07 00:28 42.93715 -78.73066 712 ft 4 kts 40°
2026-05-07 00:28 42.93761 -78.73012 716 ft 12 kts 43°
2026-05-07 00:28 42.93789 -78.72904 714 ft 14 kts 120°
2026-05-07 00:29 42.93728 -78.72778 714 ft 17 kts 108°
2026-05-07 00:29 42.93709 -78.72625 719 ft 16 kts 120°
2026-05-07 00:30 42.93518 -78.72274 716 ft 14 kts 127°
2026-05-07 00:30 42.93464 -78.72164 720 ft 14 kts 114°
2026-05-07 00:30 42.93502 -78.72062 717 ft 13 kts 20°
2026-05-07 00:30 42.93566 -78.72114 717 ft 0 kts 306°
2026-05-07 00:31 42.93571 -78.72123 716 ft 12 kts 306°
2026-05-07 00:32 42.93819 -78.72574 713 ft 106 kts 306°
2026-05-07 00:32 42.94421 -78.73647 878 ft 168 kts 308°
2026-05-07 00:32 42.95164 -78.74935 1980 ft 171 kts 309°
2026-05-07 00:32 42.95871 -78.76172 3382 ft 162 kts 307°
2026-05-07 00:33 42.96587 -78.77385 4433 ft 167 kts 307°
2026-05-07 00:33 42.97290 -78.78720 5214 ft 179 kts 303°
2026-05-07 00:33 42.98077 -78.80089 5967 ft 182 kts 306°
2026-05-07 00:33 42.98856 -78.81387 6971 ft 175 kts 309°
2026-05-07 00:34 42.99773 -78.82506 7813 ft 179 kts 317°
2026-05-07 00:34 43.00828 -78.83446 8542 ft 191 kts 323°
2026-05-07 00:34 43.02128 -78.84195 8945 ft 214 kts 342°
2026-05-07 00:34 43.03696 -78.84358 9307 ft 240 kts 349°
2026-05-07 00:35 43.05479 -78.84430 9534 ft 277 kts
2026-05-07 00:35 43.07358 -78.83334 9925 ft 316 kts 33°
2026-05-07 00:35 43.08958 -78.81100 10144 ft 348 kts 46°
2026-05-07 00:35 43.10548 -78.78415 10650 ft 365 kts 49°
2026-05-07 00:36 43.12106 -78.75694 11416 ft 370 kts 49°
2026-05-07 00:36 43.13710 -78.72915 12254 ft 374 kts 48°
2026-05-07 00:36 43.15367 -78.70133 13060 ft 379 kts 47°
2026-05-07 00:36 43.17086 -78.67349 13853 ft 385 kts 46°
2026-05-07 00:37 43.18841 -78.64543 14519 ft 392 kts 46°
2026-05-07 00:37 43.20637 -78.61675 15156 ft 399 kts 46°
2026-05-07 00:37 43.22462 -78.58754 15798 ft 406 kts 46°
2026-05-07 00:37 43.24314 -78.55779 16459 ft 413 kts 46°
2026-05-07 00:38 43.26190 -78.52753 17083 ft 419 kts 46°
2026-05-07 00:38 43.28091 -78.49677 17610 ft 426 kts 47°
2026-05-07 00:38 43.30019 -78.46551 18136 ft 432 kts 47°
2026-05-07 00:38 43.31945 -78.43424 18635 ft 436 kts 47°
2026-05-07 00:39 43.33903 -78.40237 19207 ft 437 kts 47°
2026-05-07 00:39 43.35868 -78.37035 19793 ft 438 kts 47°
2026-05-07 00:39 43.37838 -78.33822 20358 ft 441 kts 47°
2026-05-07 00:39 43.39820 -78.30587 20879 ft 443 kts 47°
2026-05-07 00:40 43.41816 -78.27327 21404 ft 446 kts 47°
2026-05-07 00:40 43.43823 -78.24045 21901 ft 449 kts 47°
2026-05-07 00:40 43.45841 -78.20742 22426 ft 451 kts 47°
2026-05-07 00:40 43.47864 -78.17426 22925 ft 454 kts 47°
2026-05-07 00:41 43.49897 -78.14090 23405 ft 457 kts 47°
2026-05-07 00:41 43.51948 -78.10722 23814 ft 460 kts 47°
2026-05-07 00:41 43.54014 -78.07324 24174 ft 463 kts 47°
2026-05-07 00:41 43.56067 -78.03945 24519 ft 467 kts 47°
2026-05-07 00:42 43.58161 -78.00493 24865 ft 470 kts 47°
2026-05-07 00:42 43.60268 -77.97016 25219 ft 473 kts 47°
2026-05-07 00:42 43.62383 -77.93522 25564 ft 476 kts 47°
2026-05-07 00:42 43.64516 -77.89992 25907 ft 479 kts 47°
2026-05-07 00:43 43.66655 -77.86449 26244 ft 482 kts 47°
2026-05-07 00:43 43.68806 -77.82881 26673 ft 482 kts 47°
2026-05-07 00:43 43.70951 -77.79318 27174 ft 481 kts 47°
2026-05-07 00:43 43.73097 -77.75746 27666 ft 480 kts 47°
2026-05-07 00:44 43.75220 -77.72212 28113 ft 480 kts 47°
2026-05-07 00:44 43.77350 -77.68661 28579 ft 480 kts 47°
2026-05-07 00:44 43.79483 -77.65102 28963 ft 480 kts 47°
2026-05-07 00:44 43.81626 -77.61524 28930 ft 483 kts 47°
2026-05-07 00:45 43.85876 -77.54407 28926 ft 475 kts 47°
2026-05-07 00:45 43.90061 -77.47384 28945 ft 476 kts 47°
2026-05-07 00:46 43.94277 -77.40293 28942 ft 476 kts 48°
2026-05-07 00:46 43.98442 -77.33267 28924 ft 466 kts 48°
2026-05-07 00:47 44.02559 -77.26309 28937 ft 467 kts 48°
2026-05-07 00:47 44.06679 -77.19330 28932 ft 467 kts 48°
2026-05-07 00:48 44.10788 -77.12352 28932 ft 466 kts 49°
2026-05-07 00:48 44.14201 -77.06542 28927 ft 465 kts 49°
2026-05-07 00:49 44.18291 -76.99564 28925 ft 464 kts 49°
2026-05-07 00:49 44.22362 -76.92600 28923 ft 462 kts 49°
2026-05-07 00:50 44.26419 -76.85645 28921 ft 461 kts 49°
2026-05-07 00:50 44.30433 -76.78747 28922 ft 461 kts 49°
2026-05-07 00:51 44.34468 -76.71797 28917 ft 460 kts 50°
2026-05-07 00:51 44.38497 -76.64839 28920 ft 460 kts 50°
2026-05-07 00:52 44.42519 -76.57878 28921 ft 460 kts 50°
2026-05-07 00:52 44.46542 -76.50896 28914 ft 460 kts 50°
2026-05-07 00:53 44.50555 -76.43915 28911 ft 460 kts 50°
2026-05-07 00:53 44.54564 -76.36925 28900 ft 460 kts 50°
2026-05-07 00:54 44.58563 -76.29932 28902 ft 459 kts 50°
2026-05-07 00:54 44.62562 -76.22927 28900 ft 459 kts 51°
2026-05-07 00:55 44.64304 -76.19243 28881 ft 459 kts 65°
2026-05-07 00:55 44.65560 -76.15070 28910 ft 458 kts 70°
2026-05-07 00:55 44.67846 -76.06728 28896 ft 458 kts 70°
2026-05-07 00:56 44.70228 -75.98490 28895 ft 458 kts 69°
2026-05-07 00:56 44.72543 -75.90160 28890 ft 457 kts 71°
2026-05-07 00:57 44.74739 -75.81787 28886 ft 456 kts 71°
2026-05-07 00:57 44.75840 -75.77594 28474 ft 458 kts 71°
2026-05-07 00:57 44.76297 -75.75860 28289 ft 457 kts 71°
2026-05-07 00:58 44.77267 -75.72192 27901 ft 445 kts 71°
2026-05-07 00:58 44.78333 -75.68175 27478 ft 433 kts 71°
2026-05-07 00:58 44.79372 -75.64255 27047 ft 423 kts 71°
2026-05-07 00:58 44.80395 -75.60386 26648 ft 419 kts 71°
2026-05-07 00:59 44.82414 -75.52730 25828 ft 415 kts 71°
2026-05-07 00:59 44.83417 -75.48915 25421 ft 413 kts 71°
2026-05-07 00:59 44.84427 -75.45110 24987 ft 413 kts 70°
2026-05-07 01:00 44.85466 -75.41385 24524 ft 414 kts 69°
2026-05-07 01:00 44.86553 -75.37578 24098 ft 413 kts 69°
2026-05-07 01:00 44.87628 -75.33826 23689 ft 412 kts 69°
2026-05-07 01:00 44.88698 -75.30076 23234 ft 412 kts 69°
2026-05-07 01:01 44.89749 -75.26372 22784 ft 410 kts 70°
2026-05-07 01:01 44.90803 -75.22641 22361 ft 409 kts 70°
2026-05-07 01:01 44.91847 -75.18930 21943 ft 406 kts 70°
2026-05-07 01:01 44.92888 -75.15220 21540 ft 404 kts 70°
2026-05-07 01:02 44.93919 -75.11539 21133 ft 403 kts 69°
2026-05-07 01:02 44.94944 -75.07872 20741 ft 401 kts 69°
2026-05-07 01:02 44.95967 -75.04212 20336 ft 400 kts 69°
2026-05-07 01:02 44.96984 -75.00568 19933 ft 399 kts 69°
2026-05-07 01:03 44.97997 -74.96930 19515 ft 398 kts 69°
2026-05-07 01:03 44.99087 -74.93325 19049 ft 399 kts 63°
2026-05-07 01:03 45.00406 -74.89868 18578 ft 401 kts 59°
2026-05-07 01:03 45.01817 -74.86468 18138 ft 401 kts 58°
2026-05-07 01:04 45.03239 -74.83073 17675 ft 400 kts 58°
2026-05-07 01:04 45.04635 -74.79688 17272 ft 397 kts 59°
2026-05-07 01:04 45.05999 -74.76314 16953 ft 392 kts 59°
2026-05-07 01:04 45.07333 -74.72973 16564 ft 389 kts 59°
2026-05-07 01:05 45.08658 -74.69633 16175 ft 387 kts 59°
2026-05-07 01:05 45.09968 -74.66322 15782 ft 384 kts 59°
2026-05-07 01:05 45.11267 -74.63035 15397 ft 381 kts 59°
2026-05-07 01:05 45.12580 -74.59787 15085 ft 376 kts 57°
2026-05-07 01:06 45.13944 -74.56656 14768 ft 372 kts 56°
2026-05-07 01:06 45.15319 -74.53575 14399 ft 369 kts 56°
2026-05-07 01:06 45.16666 -74.50551 14034 ft 367 kts 56°
2026-05-07 01:06 45.18016 -74.47487 13661 ft 365 kts 56°
2026-05-07 01:07 45.19353 -74.44427 13217 ft 364 kts 56°
2026-05-07 01:07 45.20681 -74.41379 12815 ft 361 kts 56°
2026-05-07 01:07 45.21987 -74.38366 12514 ft 356 kts 56°
2026-05-07 01:07 45.23275 -74.35386 12139 ft 353 kts 56°
2026-05-07 01:08 45.24552 -74.32428 11770 ft 350 kts 57°
2026-05-07 01:08 45.25816 -74.29497 11409 ft 347 kts 57°
2026-05-07 01:08 45.27072 -74.26585 11038 ft 344 kts 57°
2026-05-07 01:08 45.28316 -74.23695 10672 ft 342 kts 57°
2026-05-07 01:09 45.29550 -74.20827 10340 ft 338 kts 57°
2026-05-07 01:09 45.30588 -74.18413 10217 ft 329 kts 57°
2026-05-07 01:09 45.31767 -74.15666 10069 ft 321 kts 57°
2026-05-07 01:09 45.32910 -74.13006 9953 ft 311 kts 57°
2026-05-07 01:10 45.34005 -74.10451 9691 ft 307 kts 57°
2026-05-07 01:10 45.35115 -74.07860 9291 ft 304 kts 57°
2026-05-07 01:10 45.36261 -74.05343 8946 ft 301 kts 48°
2026-05-07 01:10 45.37736 -74.03289 8719 ft 294 kts 39°
2026-05-07 01:11 45.39268 -74.01376 8418 ft 292 kts 39°
2026-05-07 01:11 45.40784 -73.99468 8126 ft 290 kts 39°
2026-05-07 01:11 45.42259 -73.97579 8018 ft 282 kts 40°
2026-05-07 01:11 45.43691 -73.95725 8007 ft 274 kts 40°
2026-05-07 01:12 45.45070 -73.93930 7994 ft 261 kts 40°
2026-05-07 01:12 45.46312 -73.92311 7973 ft 249 kts 40°
2026-05-07 01:12 45.47560 -73.90683 7804 ft 239 kts 39°
2026-05-07 01:12 45.48764 -73.89113 7417 ft 240 kts 40°
2026-05-07 01:13 45.49987 -73.87519 7079 ft 238 kts 40°
2026-05-07 01:13 45.51214 -73.85916 7028 ft 238 kts 40°
2026-05-07 01:13 45.52382 -73.84391 6928 ft 236 kts 40°
2026-05-07 01:13 45.53566 -73.82842 6662 ft 233 kts 40°
2026-05-07 01:14 45.54761 -73.81280 6304 ft 232 kts 40°
2026-05-07 01:14 45.55943 -73.79732 5951 ft 230 kts 40°
2026-05-07 01:14 45.57121 -73.78188 5583 ft 229 kts 40°
2026-05-07 01:14 45.58293 -73.76652 5224 ft 228 kts 40°
2026-05-07 01:15 45.59459 -73.75123 4884 ft 226 kts 40°
2026-05-07 01:15 45.60616 -73.73605 4524 ft 225 kts 39°
2026-05-07 01:15 45.61766 -73.72093 4161 ft 226 kts 39°
2026-05-07 01:15 45.62917 -73.70582 4050 ft 225 kts 39°
2026-05-07 01:16 45.64088 -73.69044 4020 ft 229 kts 39°
2026-05-07 01:16 45.65264 -73.67497 4014 ft 229 kts 39°
2026-05-07 01:16 45.66430 -73.65961 3998 ft 228 kts 39°
2026-05-07 01:16 45.67585 -73.64439 3991 ft 224 kts 39°
2026-05-07 01:17 45.68730 -73.62929 3992 ft 223 kts 39°
2026-05-07 01:17 45.69871 -73.61425 4000 ft 223 kts 39°
2026-05-07 01:17 45.71002 -73.59918 3997 ft 223 kts 43°
2026-05-07 01:17 45.71668 -73.57938 4000 ft 227 kts 85°
2026-05-07 01:18 45.71279 -73.55751 4022 ft 234 kts 126°
2026-05-07 01:18 45.70178 -73.54012 4021 ft 236 kts 136°
2026-05-07 01:18 45.69023 -73.52339 4000 ft 236 kts 136°
2026-05-07 01:18 45.67804 -73.50799 3987 ft 232 kts 155°
2026-05-07 01:19 45.66343 -73.50461 4015 ft 201 kts 194°
2026-05-07 01:19 45.65048 -73.50854 3993 ft 180 kts 196°
2026-05-07 01:19 45.63864 -73.51205 4010 ft 172 kts 196°
2026-05-07 01:19 45.62787 -73.51835 4015 ft 165 kts 221°
2026-05-07 01:20 45.61931 -73.52912 4051 ft 164 kts 226°
2026-05-07 01:20 45.61079 -73.54007 3965 ft 165 kts 227°
2026-05-07 01:20 45.60219 -73.55148 3587 ft 165 kts 227°
2026-05-07 01:20 45.59395 -73.56235 3336 ft 160 kts 227°
2026-05-07 01:21 45.58584 -73.57302 3125 ft 158 kts 227°
2026-05-07 01:21 45.57775 -73.58365 2907 ft 158 kts 227°
2026-05-07 01:21 45.56966 -73.59428 2688 ft 158 kts 227°
2026-05-07 01:21 45.56160 -73.60486 2471 ft 156 kts 227°
2026-05-07 01:22 45.55387 -73.61499 2287 ft 141 kts 227°
2026-05-07 01:22 45.54690 -73.62413 2074 ft 133 kts 227°
2026-05-07 01:22 45.54009 -73.63311 1895 ft 133 kts 226°
2026-05-07 01:22 45.53334 -73.64198 1707 ft 130 kts 226°
2026-05-07 01:23 45.52683 -73.65053 1520 ft 124 kts 226°
2026-05-07 01:23 45.52054 -73.65879 1351 ft 124 kts 226°
2026-05-07 01:23 45.51424 -73.66708 1190 ft 126 kts 225°
2026-05-07 01:23 45.50780 -73.67556 1018 ft 126 kts 224°
2026-05-07 01:24 45.50132 -73.68405 815 ft 126 kts 223°
2026-05-07 01:24 45.49489 -73.69252 650 ft 125 kts 223°
2026-05-07 01:24 45.48848 -73.70093 475 ft 126 kts 223°
2026-05-07 01:24 45.48204 -73.70940 300 ft 126 kts 224°
2026-05-07 01:25 45.47572 -73.71776 147 ft 123 kts 224°
2026-05-07 01:25 45.46999 -73.72530 115 ft 99 kts 223°
2026-05-07 01:25 45.46579 -73.73078 110 ft 64 kts 223°
2026-05-07 01:25 45.46338 -73.73396 111 ft 32 kts 223°
2026-05-07 01:26 45.46180 -73.73603 109 ft 32 kts 219°
2026-05-07 01:26 45.46006 -73.73831 104 ft 37 kts 224°
2026-05-07 01:26 45.45861 -73.74054 103 ft 15 kts 279°
2026-05-07 01:26 45.45917 -73.74164 101 ft 0 kts 313°
2026-05-07 01:27 45.45919 -73.74167 101 ft 4 kts 317°
2026-05-07 01:27 45.45969 -73.74305 101 ft 23 kts 275°
2026-05-07 01:28 45.45974 -73.74518 103 ft 21 kts 248°
2026-05-07 01:28 45.45965 -73.74715 104 ft 20 kts 286°
2026-05-07 01:28 45.45979 -73.74881 104 ft 8 kts 255°
2026-05-07 01:28 45.45948 -73.74900 104 ft 1 kts 180°
2026-05-07 01:29 45.45936 -73.74900 104 ft 1 kts 179°
2026-05-07 01:29 45.45933 -73.74900 104 ft 0 kts 179°